カタログに戻る

STARLINK-5502

運用中通信VLEO
NORAD 55644·PAYLOAD·🇺🇸 United States

打ち上げ Feb 17, 2023 から Vandenberg Space Force Base

Loading…

次のパス (今後24時間)

TLE

最新Source: CelesTrak SupGP

元期: Sep 15, 2026, 02:07 UTC

1 55644C 23021S   26258.08868056 -.00053299  00000+0 -44671-2 0  2587
2 55644  70.0010  66.9760 0002931 269.8770 320.0882 14.98354218    11

AllMySatでSTARLINK-5502をリアルタイム追跡

Download on the App Store